Change the Weather History Date:

Saturday, November 2, 2013

  Actual Average Record
Temperature  
Mean Temperature 38 °F -  
Max Temperature 47 °F 53 °F 75 °F (1953)
Min Temperature 29 °F 37 °F 13 °F (1966)
Degree Days  
Heating Degree Days 28    
Moisture  
Dew Point 31 °F    
Average Humidity 77    
Maximum Humidity 94    
Minimum Humidity 50    
Precipitation  
Precipitation 0.00 in - - ()
Sea Level Pressure  
Sea Level Pressure 30.00 in    
Wind  
Wind Speed 2 mph (NW)    
Max Wind Speed 10 mph    
Max Gust Speed -    
Visibility 10 miles    
Events      
Averages and records for this station are not official NWS values.
T = Trace of Precipitation, MM = Missing Value Source: NWS Daily Summary

Daily Weather History Graph

Daily Weather History Graph

Search for Another Location

Airport or City:

Trip Planner

Search our weather history database for the weather conditions in past years. The results will help you decide how hot, cold, wet, or windy it might be!

Date:

Astronomy

Nov. 02, 2013 Rise Set
Actual Time 7:40 AM CDT 5:54 PM CDT
Civil Twilight 7:10 AM CDT 6:24 PM CDT
Nautical Twilight 6:37 AM CDT 6:58 PM CDT
Astronomical Twilight 6:04 AM CDT 7:31 PM CDT
Moon 6:37 AM CDT (11/2) 5:26 PM CDT (11/2)
Length of Visible Light 11h 13m
Length of Day
10h 14m
Waning Crescent, 1% of the Moon is Illuminated
Nov 2
Waning Crescent
Nov 3
New
Nov 9
First Quarter
Nov 17
Full
Nov 25
Last Quarter

Hourly Weather History & Observations

Time (CDT) Temp. Windchill Dew Point Humidity Pressure Visibility Wind Dir Wind Speed Gust Speed Precip Events Conditions
12:15 AM 34.5 °F - 32.4 °F 92% 29.79 in 10.0 mi Calm Calm - N/A   Scattered Clouds
12:35 AM 34.0 °F - 32.2 °F 93% 29.80 in 10.0 mi Calm Calm - N/A   Scattered Clouds
12:55 AM 34.2 °F - 32.7 °F 94% 29.81 in 7.0 mi Calm Calm - N/A   Scattered Clouds
1:15 AM 34.7 °F - 32.9 °F 93% 29.82 in 10.0 mi Calm Calm - N/A   Mostly Cloudy
1:35 AM 35.8 °F - 34.0 °F 93% 29.83 in 7.0 mi Calm Calm - N/A   Overcast
1:55 AM 36.3 °F - 34.2 °F 92% 29.83 in 10.0 mi Calm Calm - N/A   Mostly Cloudy
2:15 AM 35.6 °F - 33.8 °F 93% 29.84 in 7.0 mi Calm Calm - N/A   Mostly Cloudy
2:35 AM 36.5 °F - 34.7 °F 93% 29.85 in 10.0 mi Calm Calm - N/A   Overcast
2:55 AM 36.7 °F - 34.2 °F 91% 29.85 in 10.0 mi Calm Calm - N/A   Scattered Clouds
3:15 AM 36.9 °F - 33.8 °F 89% 29.85 in 10.0 mi Calm Calm - N/A   Mostly Cloudy
3:35 AM 37.4 °F - 34.2 °F 88% 29.86 in 10.0 mi Calm Calm - N/A   Overcast
3:55 AM 38.3 °F 35.9 °F 33.8 °F 84% 29.86 in 10.0 mi WNW 3.5 mph - N/A   Mostly Cloudy
4:15 AM 37.9 °F 33.5 °F 32.4 °F 80% 29.87 in 10.0 mi WNW 5.8 mph - N/A   Scattered Clouds
4:35 AM 36.7 °F 32.9 °F 32.0 °F 83% 29.88 in 10.0 mi WNW 4.6 mph - N/A   Clear
4:55 AM 36.5 °F 31.0 °F 31.8 °F 83% 29.89 in 10.0 mi WNW 6.9 mph - N/A   Clear
5:15 AM 36.0 °F 33.3 °F 31.3 °F 83% 29.89 in 10.0 mi WNW 3.5 mph - N/A   Clear
5:35 AM 36.0 °F 32.1 °F 31.1 °F 82% 29.90 in 10.0 mi WNW 4.6 mph - N/A   Clear
5:55 AM 35.6 °F 31.7 °F 31.1 °F 84% 29.91 in 10.0 mi WNW 4.6 mph - N/A   Mostly Cloudy
6:15 AM 36.1 °F 31.4 °F 31.5 °F 83% 29.92 in 10.0 mi WNW 5.8 mph - N/A   Overcast
6:35 AM 36.3 °F 32.5 °F 31.5 °F 83% 29.93 in 10.0 mi WNW 4.6 mph - N/A   Scattered Clouds
6:55 AM 35.8 °F 31.9 °F 31.5 °F 84% 29.94 in 10.0 mi West 4.6 mph - N/A   Scattered Clouds
7:15 AM 36.1 °F - 32.0 °F 85% 29.94 in 10.0 mi Calm Calm - N/A   Mostly Cloudy
7:35 AM 36.7 °F - 31.8 °F 83% 29.95 in 10.0 mi Calm Calm - N/A   Overcast
7:55 AM 36.5 °F - 32.0 °F 84% 29.96 in 10.0 mi Calm Calm - N/A   Overcast
8:15 AM 36.7 °F 34.1 °F 32.5 °F 85% 29.97 in 10.0 mi WSW 3.5 mph - N/A   Overcast
8:35 AM 37.2 °F - 32.0 °F 81% 29.97 in 10.0 mi Calm Calm - N/A   Overcast
8:55 AM 37.6 °F - 32.7 °F 83% 29.98 in 10.0 mi Calm Calm - N/A   Mostly Cloudy
9:15 AM 37.6 °F - 32.7 °F 83% 29.99 in 10.0 mi Calm Calm - N/A   Mostly Cloudy
9:35 AM 39.9 °F 37.8 °F 33.1 °F 77% 29.99 in 10.0 mi West 3.5 mph - N/A   Scattered Clouds
9:55 AM 41.5 °F 37.8 °F 33.6 °F 73% 30.00 in 10.0 mi WNW 5.8 mph - N/A   Scattered Clouds
10:15 AM 42.3 °F 39.4 °F 34.2 °F 73% 30.00 in 10.0 mi NW 4.6 mph - N/A   Mostly Cloudy
10:35 AM 42.8 °F 38.6 °F 34.2 °F 72% 30.00 in 10.0 mi WNW 6.9 mph - N/A   Overcast
10:55 AM 43.0 °F 41.3 °F 34.0 °F 71% 30.01 in 10.0 mi NW 3.5 mph - N/A   Overcast
12:15 PM 43.7 °F 39.1 °F 32.2 °F 64% 30.03 in 10.0 mi WNW 8.1 mph - N/A   Overcast
12:35 PM 43.9 °F 39.9 °F 31.6 °F 62% 30.03 in 10.0 mi NW 6.9 mph - N/A   Overcast
12:55 PM 44.6 °F 39.2 °F 32.0 °F 61% 30.03 in 10.0 mi NW 10.4 mph - N/A   Overcast
1:15 PM 44.6 °F 41.4 °F 30.6 °F 58% 30.04 in 10.0 mi NW 5.8 mph - N/A   Overcast
1:35 PM 44.6 °F 40.2 °F 30.4 °F 57% 30.04 in 10.0 mi WNW 8.1 mph - N/A   Overcast
1:55 PM 45.0 °F 40.1 °F 31.1 °F 58% 30.04 in 10.0 mi NW 9.2 mph - N/A   Overcast
2:15 PM 45.1 °F 42.0 °F 30.9 °F 58% 30.04 in 10.0 mi NNW 5.8 mph - N/A   Overcast
2:35 PM 45.3 °F 40.6 °F 30.2 °F 56% 30.04 in 10.0 mi North 9.2 mph - N/A   Mostly Cloudy
2:55 PM 45.1 °F 40.3 °F 29.5 °F 54% 30.05 in 10.0 mi NNW 9.2 mph - N/A   Mostly Cloudy
3:15 PM 45.9 °F 42.3 °F 29.3 °F 52% 30.05 in 10.0 mi NNW 6.9 mph - N/A   Mostly Cloudy
3:35 PM 46.4 °F 43.5 °F 29.7 °F 52% 30.05 in 10.0 mi North 5.8 mph - N/A   Scattered Clouds
3:55 PM 46.9 °F - 28.9 °F 50% 30.06 in 10.0 mi NNW 9.2 mph - N/A   Mostly Cloudy
4:15 PM 45.5 °F 42.5 °F 28.9 °F 52% 30.07 in 10.0 mi NNW 5.8 mph - N/A   Scattered Clouds
4:35 PM 45.5 °F 41.8 °F 28.9 °F 52% 30.08 in 10.0 mi NNW 6.9 mph - N/A   Scattered Clouds
4:55 PM 45.7 °F 42.7 °F 29.1 °F 52% 30.09 in 10.0 mi NNW 5.8 mph - N/A   Scattered Clouds
5:15 PM 45.9 °F 43.6 °F 28.9 °F 52% 30.09 in 10.0 mi North 4.6 mph - N/A   Scattered Clouds
5:35 PM 44.4 °F 42.9 °F 28.8 °F 54% 30.09 in 10.0 mi NE 3.5 mph - N/A   Clear
5:55 PM 43.7 °F - 28.9 °F 56% 30.09 in 10.0 mi Calm Calm - N/A   Clear
6:15 PM 41.2 °F - 30.0 °F 65% 30.09 in 10.0 mi Calm Calm - N/A   Clear
6:35 PM 39.6 °F - 29.3 °F 67% 30.10 in 10.0 mi Calm Calm - N/A   Clear
6:55 PM 38.1 °F - 29.8 °F 72% 30.11 in 10.0 mi Calm Calm - N/A   Clear
7:15 PM 35.6 °F - 30.4 °F 81% 30.12 in 10.0 mi Calm Calm - N/A   Clear
7:35 PM 35.4 °F - 29.8 °F 80% 30.12 in 10.0 mi Calm Calm - N/A   Clear
7:55 PM 34.5 °F 31.6 °F 29.3 °F 81% 30.13 in 10.0 mi East 3.5 mph - N/A   Clear
8:15 PM 32.5 °F - 29.3 °F 88% 30.13 in 10.0 mi Calm Calm - N/A   Clear
8:35 PM 33.1 °F - 29.1 °F 85% 30.13 in 10.0 mi Calm Calm - N/A   Clear
8:55 PM 32.4 °F - 28.9 °F 87% 30.13 in 10.0 mi Calm Calm - N/A   Clear
9:15 PM 32.0 °F - 28.9 °F 88% 30.13 in 10.0 mi Calm Calm - N/A   Clear
9:35 PM 31.6 °F - 28.4 °F 88% 30.14 in 10.0 mi Calm Calm - N/A   Clear
9:55 PM 30.6 °F - 27.9 °F 90% 30.15 in 10.0 mi Calm Calm - N/A   Clear
10:15 PM 30.2 °F - 27.9 °F 91% 30.15 in 10.0 mi Calm Calm - N/A   Clear
10:35 PM 30.6 °F - 27.9 °F 90% 30.15 in 10.0 mi Calm Calm - N/A   Clear
10:55 PM 30.0 °F - 27.7 °F 91% 30.15 in 10.0 mi Calm Calm - N/A   Clear
11:15 PM 29.7 °F - 27.5 °F 92% 30.15 in 10.0 mi Calm Calm - N/A   Clear
11:35 PM 29.7 °F - 27.7 °F 92% 30.16 in 10.0 mi Calm Calm - N/A   Clear
11:55 PM 29.3 °F - 27.5 °F 93% 30.16 in 10.0 mi Calm Calm - N/A   Clear